Regional Weather Roundup
Issued by NWS Newport/Morehead, NC

Current Version | Previous Version | Graphics & Text | Print | Product List | Glossary Off
Versions: 1 2 3 4 5 6 7 8 9 10 11 12 13 14 15 16 17 18 19 20 21 22 23 24 25 26 27 28 29 30 31 32 33 34 35 36 37 38 39 40 41 42 43 44 45 46 47 48 49 50

128
ASUS42 KMHX 010725
RWRMHX
WEATHER ROUNDUP FOR EASTERN NORTH CAROLINA
NATIONAL WEATHER SERVICE NEWPORT/MOREHEAD CITY NC
300 AM EDT SUN MAY 01 2016

NOTE: "FAIR" INDICATES FEW OR NO CLOUDS BELOW 12,000 FEET
WITH NO SIGNIFICANT WEATHER AND/OR OBSTRUCTIONS TO VISIBILITY

NCZ015>017-031-032-045>047-102-103-010800-
NORTH COAST

CITY           SKY/WX    TMP DP  RH WIND       PRES   REMARKS
EDENTON        CLOUDY    56  56 100 CALM      30.14F
ELIZABETH CITY CLOUDY    56  53  90 E7        30.13F
KITTY HAWK     CLOUDY    56  55  93 E8        30.11F
MANTEO         NOT AVBL

$$

NCZ045>047-081-094-103-104-010800-
CENTRAL COAST

CITY           SKY/WX    TMP DP  RH WIND       PRES   REMARKS
FRISCO         MOCLDY    59  55  87 NE7       30.10F
SWANQUARTER    NOT AVBL

$$

NCZ095-097-098-100-101-010800-
SOUTHERN COAST

CITY           SKY/WX    TMP DP  RH WIND       PRES   REMARKS
BEAUFORT       CLOUDY    63  60  90 NE3       30.11F
CEDAR ISLAND   NOT AVBL
JACKSONVILLE   CLOUDY    62  58  86 E9        30.10F
PINEY ISLAND   NOT AVBL
WILMINGTON     CLOUDY    65  62  90 E5        30.10F


$$

NCZ011>013-027>030-043-044-078>080-089-090>093-098-010800-
COASTAL PLAIN

CITY           SKY/WX    TMP DP  RH WIND       PRES   REMARKS
AHOSKIE        CLOUDY    54  51  89 CALM      30.14F
CLINTON        CLOUDY    61  59  93 CALM      30.12S
ELIZABETHTOWN  CLOUDY    61  60  97 CALM      30.10F FOG
GOLDSBORO      CLOUDY    61  61 100 E7        30.10F
GREENVILLE     CLOUDY    55  54  94 SE5       30.14F
HAVELOCK       CLOUDY    59  57  93 CALM      30.12F
KENANSVILLE    CLOUDY    59  56  91 CALM      30.12F
KINSTON        CLOUDY    60  56  89 CALM      30.14S
NEW BERN       CLOUDY    60  57  89 NE5       30.13F
RICHLANDS      CLOUDY    60  58  92 NE6       30.12F
ROCKY MOUNT    CLOUDY    57  54  89 E5        30.12F
WASHINGTON     CLOUDY    55  53  94 NE5       30.13F
WHITEVILLE     CLOUDY    64  62  92 NE5       30.09S

$$

AMZ130-135-150-152-154-156-158-170-250-252-270-ANZ085-086-088-633-658-670-010800-
MARINE OBSERVATIONS

STATION/POSITION TIME  TEMP    WIND        PRES    WAVE   SWELL
                       AIR SEA DIR/SP/G            HT/PER HT/PER
                 (UTC) (F)     (DEG/KT/KT) (MB)    (FT/S) (FT/S)
CHESAPEAKE LIGHT 0700   54     100/ 12/ 13 1021.2
64 E VA BEACH    0650   54 53   50/  6/  8 1020.2    6/ 9   5/ 9
DUCK             0700   56 67   80/ 12/ 14 1019.7
2 E DUCK         0611      59                N/A     5/10   2/11
OREGON INLET     0700   57 62   40/  9/ 11 1019.7
13E OREGON INLT  0700      55                N/A     6/10   5/10
HATTERAS CG      0700   61 68   70/  8/ 10 1019.0
DIAMOND BUOY     0650   68 73   60/  8/ 16 1019.2    6/10   5/10
CAPE LOOKOUT     0700   64      60/ 11/ 12 1019.0
BEAUFORT LAB     0700   63 67   30/  4/  6 1018.7
30 SE NEW RVR IN 0625      69                N/A     4/ 5   2/11
27 SE WRIGHTSVLE 0708   72 72  100/ 12/ 17 1018.0
5 SE WRIGHTSVLE  0708   67 68   90/ 12/ 16 1019.1
225 S CAPE HAT   0650   71      90/ 14/ 16 1019.8    5/10   5/10
41 SE CHARLESTON 0650   74 73  130/ 17/ 23 1016.9    5/ 5   2/10

$$




USA.gov is the U.S. government's official web portal to all federal, state and local government web resources and services.